QPF
0.00 0.01 0.04 0.07 0.17 0.18 0.12 0.10 0.15 0.11 0.03 0.01 0.01 0.01 0.01 0.01 0.02 0.03 0.04 0.04 0.03 0.02 0.01 0.01 0.01 0.01 0.01 0.01 0.01 0.00 0.00 0.00 0.00 0.00 0.00 0.00 0.00 0.00 0.00 0.00 0.00 0.00 0.00
0.00 0.00 0.02 0.06 0.11 0.17 0.13 0.09 0.08 0.08 0.06 0.06 0.05 0.03 0.02 0.03 0.04 0.07 0.08 0.07 0.05 0.04 0.04 0.03 0.03 0.02 0.01 0.01 0.00 0.00 0.00 0.00 0.00 0.00 0.00 0.00 0.00 0.00 0.00 0.00 0.00 0.00 0.00
0.00 0.00 0.01 0.04 0.05 0.08 0.09 0.11 0.13 0.17 0.19 0.16 0.11 0.09 0.08 0.09 0.10 0.12 0.13 0.12 0.10 0.08 0.06 0.05 0.03 0.01 0.01 0.00 0.00 0.00 0.00 0.00 0.00 0.00 0.00 0.00 0.00 0.00 0.00 0.00 0.00 0.00 0.00
0.00 0.00 0.01 0.04 0.04 0.07 0.12 0.19 0.27 0.36 0.38 0.34 0.27 0.23 0.22 0.19 0.19 0.18 0.17 0.17 0.13 0.09 0.05 0.03 0.01 0.00 0.00 0.00 0.00 0.00 0.00 0.00 0.00 0.00 0.00 0.00 0.00 0.00 0.00 0.00 0.00 0.00 0.00
0.00 0.01 0.02 0.04 0.07 0.11 0.15 0.21 0.32 0.48 0.59 0.59 0.52 0.43 0.35 0.29 0.27 0.24 0.21 0.16 0.10 0.05 0.03 0.01 0.01 0.00 0.00 0.00 0.00 0.00 0.00 0.00 0.00 0.00 0.00 0.00 0.00 0.00 0.00 0.00 0.00 0.00 0.00
0.00 0.02 0.04 0.08 0.14 0.22 0.24 0.27 0.36 0.51 0.58 0.52 0.44 0.38 0.35 0.31 0.25 0.19 0.15 0.08 0.03 0.02 0.01 0.01 0.00 0.00 0.00 0.00 0.00 0.00 0.00 0.00 0.00 0.00 0.00 0.00 0.00 0.00 0.00 0.00 0.00 0.00 0.00
0.00 0.02 0.05 0.10 0.18 0.23 0.25 0.25 0.25 0.26 0.27 0.23 0.21 0.22 0.20 0.17 0.14 0.09 0.05 0.03 0.02 0.01 0.01 0.00 0.00 0.00 0.00 0.00 0.00 0.00 0.00 0.00 0.00 0.00 0.00 0.00 0.00 0.00 0.00 0.00 0.00 0.00 0.00
0.02 0.04 0.09 0.13 0.19 0.22 0.20 0.14 0.12 0.11 0.09 0.08 0.10 0.10 0.08 0.06 0.06 0.04 0.03 0.02 0.01 0.01 0.00 0.00 0.00 0.00 0.00 0.00 0.00 0.00 0.00 0.00 0.00 0.00 0.00 0.00 0.00 0.00 0.00 0.00 0.00 0.00 0.00
0.05 0.07 0.11 0.15 0.16 0.15 0.11 0.07 0.06 0.05 0.04 0.04 0.04 0.04 0.04 0.04 0.04 0.03 0.02 0.01 0.01 0.00 0.00 0.00 0.00 0.00 0.00 0.00 0.00 0.00 0.00 0.00 0.00 0.00 0.00 0.00 0.00 0.00 0.00 0.00 0.01 0.01 0.01
0.06 0.10 0.13 0.15 0.15 0.12 0.10 0.07 0.04 0.03 0.03 0.03 0.03 0.04 0.04 0.04 0.03 0.02 0.01 0.01 0.00 0.00 0.00 0.00 0.00 0.00 0.00 0.00 0.00 0.00 0.00 0.00 0.00 0.00 0.00 0.00 0.00 0.01 0.01 0.01 0.01 0.02 0.02
0.09 0.13 0.16 0.15 0.12 0.09 0.08 0.06 0.03 0.03 0.03 0.03 0.03 0.04 0.03 0.03 0.02 0.01 0.01 0.00 0.00 0.00 0.00 0.00 0.00 0.00 0.00 0.00 0.00 0.00 0.00 0.00 0.00 0.00 0.00 0.00 0.00 0.00 0.00 0.01 0.01 0.01 0.01
0.11 0.15 0.14 0.11 0.09 0.06 0.04 0.03 0.02 0.02 0.02 0.03 0.02 0.02 0.02 0.02 0.01 0.01 0.01 0.00 0.00 0.00 0.00 0.00 0.00 0.00 0.00 0.00 0.00 0.00 0.00 0.00 0.00 0.00 0.00 0.00 0.00 0.00 0.00 0.00 0.00 0.00 0.00
0.19 0.18 0.12 0.08 0.05 0.03 0.02 0.01 0.01 0.01 0.02 0.02 0.02 0.01 0.01 0.01 0.01 0.01 0.01 0.00 0.01 0.01 0.01 0.01 0.01 0.01 0.00 0.00 0.00 0.00 0.00 0.00 0.00 0.00 0.00 0.00 0.00 0.00 0.00 0.00 0.00 0.00 0.00
0.18 0.11 0.06 0.03 0.01 0.01 0.01 0.00 0.00 0.01 0.01 0.01 0.01 0.01 0.01 0.01 0.01 0.01 0.01 0.01 0.01 0.01 0.01 0.01 0.01 0.00 0.00 0.00 0.00 0.00 0.00 0.00 0.00 0.00 0.00 0.00 0.00 0.00 0.00 0.00 0.00 0.00 0.00
0.08 0.04 0.02 0.01 0.01 0.00 0.00 0.00 0.00 0.01 0.01 0.01 0.01 0.01 0.01 0.01 0.02 0.02 0.02 0.02 0.02 0.02 0.01 0.01 0.00 0.00 0.00 0.00 0.00 0.00 0.00 0.00 0.00 0.00 0.00 0.00 0.00 0.01 0.02 0.02 0.02 0.02 0.02
0.06 0.03 0.02 0.01 0.01 0.01 0.01 0.01 0.02 0.02 0.02 0.02 0.02 0.03 0.02 0.03 0.03 0.02 0.02 0.02 0.01 0.00 0.00 0.00 0.00 0.00 0.00 0.00 0.00 0.00 0.00 0.00 0.00 0.00 0.00 0.00 0.00 0.01 0.01 0.02 0.03 0.05 0.05
0.03 0.02 0.01 0.01 0.01 0.01 0.02 0.02 0.03 0.03 0.03 0.04 0.04 0.03 0.03 0.03 0.02 0.01 0.01 0.00 0.00 0.00 0.00 0.00 0.00 0.00 0.00 0.00 0.00 0.00 0.00 0.00 0.00 0.00 0.00 0.00 0.00 0.00 0.01 0.01 0.02 0.02 0.03
0.01 0.01 0.01 0.02 0.02 0.02 0.02 0.03 0.04 0.04 0.04 0.04 0.03 0.02 0.01 0.01 0.01 0.00 0.00 0.00 0.00 0.00 0.00 0.00 0.00 0.00 0.00 0.00 0.00 0.00 0.00 0.00 0.00 0.00 0.00 0.00 0.00 0.01 0.01 0.01 0.01 0.01 0.01
0.01 0.01 0.01 0.02 0.03 0.03 0.04 0.04 0.04 0.04 0.04 0.03 0.02 0.01 0.01 0.00 0.00 0.00 0.00 0.00 0.00 0.00 0.00 0.00 0.00 0.00 0.00 0.00 0.00 0.00 0.00 0.00 0.00 0.00 0.00 0.00 0.01 0.02 0.03 0.02 0.02 0.01 0.00
0.01 0.01 0.01 0.02 0.03 0.03 0.02 0.03 0.03 0.03 0.02 0.01 0.01 0.00 0.00 0.00 0.00 0.00 0.00 0.00 0.00 0.00 0.00 0.00 0.00 0.00 0.00 0.00 0.00 0.00 0.00 0.00 0.00 0.00 0.00 0.01 0.01 0.03 0.03 0.02 0.02 0.02 0.01
0.00 0.01 0.01 0.02 0.02 0.02 0.03 0.03 0.02 0.02 0.01 0.00 0.00 0.00 0.00 0.00 0.00 0.00 0.00 0.00 0.00 0.00 0.00 0.00 0.00 0.00 0.00 0.00 0.00 0.00 0.00 0.00 0.00 0.00 0.01 0.01 0.02 0.03 0.03 0.03 0.03 0.04 0.03
0.00 0.00 0.01 0.01 0.02 0.02 0.02 0.02 0.01 0.00 0.00 0.00 0.00 0.00 0.00 0.00 0.00 0.00 0.00 0.00 0.00 0.00 0.00 0.00 0.00 0.00 0.00 0.00 0.00 0.00 0.00 0.00 0.00 0.01 0.01 0.02 0.03 0.04 0.04 0.04 0.04 0.05 0.04
0.00 0.01 0.01 0.01 0.01 0.01 0.01 0.01 0.00 0.00 0.00 0.00 0.00 0.00 0.00 0.00 0.00 0.00 0.00 0.00 0.00 0.00 0.00 0.00 0.00 0.00 0.00 0.00 0.00 0.00 0.00 0.00 0.00 0.01 0.01 0.02 0.03 0.03 0.03 0.04 0.04 0.04 0.02
0.00 0.01 0.01 0.01 0.01 0.00 0.00 0.00 0.00 0.00 0.00 0.00 0.00 0.00 0.00 0.00 0.00 0.00 0.00 0.00 0.00 0.00 0.00 0.00 0.00 0.00 0.00 0.00 0.00 0.00 0.00 0.00 0.00 0.00 0.01 0.02 0.02 0.02 0.02 0.03 0.03 0.02 0.02
0.01 0.01 0.01 0.01 0.01 0.00 0.00 0.00 0.00 0.00 0.00 0.00 0.00 0.00 0.00 0.00 0.00 0.00 0.00 0.00 0.00 0.00 0.00 0.00 0.00 0.00 0.00 0.00 0.00 0.00 0.00 0.00 0.00 0.01 0.00 0.01 0.02 0.02 0.02 0.01 0.01 0.01 0.01
0.01 0.01 0.01 0.01 0.00 0.00 0.00 0.00 0.00 0.00 0.00 0.00 0.00 0.00 0.00 0.00 0.00 0.00 0.00 0.00 0.00 0.00 0.00 0.00 0.00 0.00 0.00 0.00 0.00 0.00 0.00 0.00 0.01 0.01 0.01 0.02 0.03 0.04 0.04 0.03 0.02 0.02 0.02
MSLP
1006.39 1006.56 1006.76 1006.95 1007.11 1007.26 1007.42 1007.66 1008.02 1008.53 1009.19 1009.98 1010.87 1011.79 1012.67 1013.47 1014.15 1014.71 1015.17 1015.56 1015.93 1016.31 1016.72 1017.17 1017.66 1018.15 1018.60 1019.01 1019.33 1019.58 1019.74 1019.85 1019.92 1019.97 1019.99 1020.00 1019.98 1019.92 1019.79 1019.60 1019.35 1019.08 1018.79
1005.79 1006.04 1006.31 1006.55 1006.74 1006.90 1007.07 1007.31 1007.69 1008.24 1008.98 1009.88 1010.88 1011.91 1012.89 1013.77 1014.51 1015.10 1015.57 1015.97 1016.34 1016.73 1017.17 1017.65 1018.17 1018.69 1019.16 1019.57 1019.88 1020.10 1020.24 1020.33 1020.38 1020.43 1020.48 1020.52 1020.53 1020.50 1020.39 1020.21 1019.96 1019.66 1019.34
1005.19 1005.54 1005.92 1006.27 1006.55 1006.78 1007.01 1007.30 1007.73 1008.34 1009.14 1010.11 1011.18 1012.27 1013.31 1014.22 1014.98 1015.57 1016.03 1016.41 1016.78 1017.16 1017.61 1018.11 1018.64 1019.16 1019.63 1020.02 1020.30 1020.50 1020.61 1020.67 1020.72 1020.78 1020.85 1020.93 1020.99 1021.00 1020.93 1020.77 1020.52 1020.21 1019.86
1004.72 1005.18 1005.70 1006.19 1006.61 1006.96 1007.29 1007.66 1008.15 1008.81 1009.65 1010.64 1011.73 1012.82 1013.85 1014.74 1015.47 1016.03 1016.46 1016.82 1017.17 1017.54 1017.98 1018.48 1019.00 1019.52 1019.97 1020.33 1020.59 1020.75 1020.83 1020.88 1020.92 1020.99 1021.10 1021.21 1021.31 1021.36 1021.33 1021.19 1020.95 1020.63 1020.26
1004.53 1005.11 1005.77 1006.41 1006.98 1007.47 1007.91 1008.37 1008.91 1009.59 1010.43 1011.39 1012.43 1013.46 1014.42 1015.25 1015.91 1016.42 1016.81 1017.14 1017.46 1017.83 1018.26 1018.75 1019.26 1019.76 1020.19 1020.52 1020.75 1020.87 1020.93 1020.97 1021.01 1021.09 1021.20 1021.34 1021.47 1021.54 1021.53 1021.40 1021.16 1020.84 1020.45
1004.73 1005.41 1006.20 1006.98 1007.68 1008.29 1008.83 1009.36 1009.93 1010.59 1011.38 1012.26 1013.19 1014.11 1014.96 1015.68 1016.25 1016.69 1017.04 1017.34 1017.65 1018.01 1018.44 1018.92 1019.43 1019.90 1020.31 1020.62 1020.81 1020.92 1020.96 1020.98 1021.01 1021.09 1021.20 1021.34 1021.47 1021.54 1021.52 1021.39 1021.14 1020.80 1020.40
1005.38 1006.13 1007.00 1007.88 1008.69 1009.38 1009.99 1010.54 1011.09 1011.70 1012.39 1013.14 1013.93 1014.70 1015.40 1016.00 1016.48 1016.86 1017.16 1017.45 1017.76 1018.13 1018.56 1019.04 1019.54 1020.00 1020.38 1020.67 1020.84 1020.92 1020.95 1020.95 1020.97 1021.03 1021.12 1021.24 1021.34 1021.38 1021.33 1021.17 1020.90 1020.54 1020.13
1006.44 1007.23 1008.14 1009.07 1009.92 1010.66 1011.27 1011.81 1012.31 1012.82 1013.38 1013.97 1014.59 1015.20 1015.75 1016.23 1016.62 1016.95 1017.23 1017.52 1017.85 1018.23 1018.67 1019.16 1019.65 1020.09 1020.46 1020.72 1020.88 1020.94 1020.94 1020.93 1020.92 1020.95 1021.00 1021.07 1021.12 1021.11 1021.01 1020.81 1020.51 1020.13 1019.71
1007.82 1008.61 1009.53 1010.45 1011.29 1012.01 1012.59 1013.07 1013.48 1013.88 1014.29 1014.72 1015.18 1015.62 1016.04 1016.41 1016.74 1017.03 1017.31 1017.62 1017.97 1018.38 1018.84 1019.33 1019.81 1020.24 1020.58 1020.82 1020.95 1021.00 1020.99 1020.95 1020.91 1020.89 1020.89 1020.89 1020.86 1020.78 1020.62 1020.38 1020.04 1019.65 1019.23
1009.37 1010.14 1011.02 1011.89 1012.68 1013.34 1013.85 1014.24 1014.56 1014.83 1015.11 1015.39 1015.70 1016.01 1016.32 1016.62 1016.90 1017.18 1017.48 1017.81 1018.19 1018.63 1019.10 1019.58 1020.05 1020.45 1020.77 1020.98 1021.09 1021.12 1021.08 1021.02 1020.94 1020.87 1020.81 1020.73 1020.62 1020.46 1020.23 1019.93 1019.58 1019.18 1018.76
1010.94 1011.68 1012.49 1013.28 1013.99 1014.56 1014.99 1015.29 1015.51 1015.68 1015.84 1016.01 1016.21 1016.42 1016.66 1016.91 1017.17 1017.46 1017.78 1018.14 1018.55 1019.01 1019.48 1019.95 1020.39 1020.75 1021.03 1021.21 1021.29 1021.29 1021.23 1021.13 1021.02 1020.89 1020.76 1020.60 1020.41 1020.17 1019.87 1019.52 1019.14 1018.73 1018.34
1012.41 1013.10 1013.84 1014.54 1015.15 1015.62 1015.97 1016.20 1016.34 1016.44 1016.53 1016.62 1016.75 1016.90 1017.10 1017.32 1017.59 1017.89 1018.24 1018.63 1019.06 1019.51 1019.97 1020.41 1020.80 1021.12 1021.35 1021.48 1021.53 1021.49 1021.40 1021.27 1021.11 1020.93 1020.73 1020.50 1020.22 1019.90 1019.54 1019.14 1018.73 1018.32 1017.94
1013.70 1014.35 1015.01 1015.62 1016.13 1016.53 1016.81 1016.98 1017.08 1017.14 1017.19 1017.25 1017.34 1017.48 1017.65 1017.88 1018.15 1018.47 1018.83 1019.23 1019.66 1020.10 1020.54 1020.93 1021.26 1021.52 1021.69 1021.77 1021.77 1021.70 1021.57 1021.40 1021.19 1020.96 1020.69 1020.37 1020.02 1019.62 1019.19 1018.74 1018.30 1017.88 1017.50
1014.81 1015.40 1015.99 1016.51 1016.94 1017.28 1017.51 1017.66 1017.74 1017.80 1017.85 1017.91 1018.00 1018.13 1018.31 1018.54 1018.82 1019.14 1019.51 1019.91 1020.33 1020.74 1021.12 1021.46 1021.72 1021.91 1022.01 1022.03 1021.98 1021.86 1021.69 1021.48 1021.22 1020.93 1020.59 1020.20 1019.76 1019.29 1018.79 1018.29 1017.81 1017.37 1016.98
1015.74 1016.29 1016.80 1017.24 1017.61 1017.90 1018.11 1018.25 1018.35 1018.43 1018.50 1018.58 1018.69 1018.83 1019.02 1019.25 1019.53 1019.86 1020.22 1020.59 1020.98 1021.34 1021.67 1021.94 1022.14 1022.25 1022.28 1022.24 1022.13 1021.96 1021.75 1021.49 1021.18 1020.82 1020.41 1019.95 1019.43 1018.88 1018.31 1017.75 1017.22 1016.75 1016.34
1016.56 1017.05 1017.48 1017.86 1018.17 1018.43 1018.63 1018.79 1018.91 1019.02 1019.13 1019.25 1019.38 1019.54 1019.73 1019.97 1020.24 1020.55 1020.88 1021.23 1021.57 1021.88 1022.15 1022.35 1022.47 1022.51 1022.48 1022.37 1022.21 1021.99 1021.72 1021.41 1021.04 1020.62 1020.15 1019.61 1019.02 1018.39 1017.75 1017.13 1016.55 1016.03 1015.59
1017.29 1017.71 1018.08 1018.39 1018.66 1018.89 1019.09 1019.27 1019.43 1019.58 1019.73 1019.88 1020.03 1020.21 1020.41 1020.63 1020.89 1021.17 1021.47 1021.78 1022.07 1022.32 1022.53 1022.66 1022.71 1022.69 1022.59 1022.42 1022.20 1021.93 1021.61 1021.25 1020.83 1020.35 1019.81 1019.20 1018.54 1017.85 1017.15 1016.47 1015.84 1015.28 1014.80
1017.97 1018.32 1018.62 1018.87 1019.10 1019.31 1019.52 1019.71 1019.90 1020.09 1020.27 1020.45 1020.63 1020.81 1021.01 1021.22 1021.45 1021.71 1021.97 1022.23 1022.47 1022.67 1022.82 1022.88 1022.88 1022.79 1022.63 1022.41 1022.14 1021.81 1021.44 1021.03 1020.56 1020.03 1019.43 1018.77 1018.06 1017.32 1016.57 1015.84 1015.17 1014.58 1014.07
1018.59 1018.88 1019.12 1019.32 1019.51 1019.70 1019.90 1020.11 1020.32 1020.54 1020.74 1020.94 1021.14 1021.33 1021.52 1021.72 1021.94 1022.16 1022.39 1022.61 1022.80 1022.95 1023.03 1023.05 1022.98 1022.84 1022.63 1022.36 1022.04 1021.67 1021.25 1020.79 1020.28 1019.71 1019.07 1018.37 1017.63 1016.85 1016.07 1015.32 1014.63 1014.01 1013.49
1019.15 1019.39 1019.58 1019.74 1019.90 1020.07 1020.26 1020.47 1020.69 1020.92 1021.15 1021.37 1021.57 1021.77 1021.96 1022.16 1022.35 1022.55 1022.75 1022.93 1023.08 1023.18 1023.22 1023.19 1023.07 1022.88 1022.62 1022.31 1021.94 1021.53 1021.07 1020.58 1020.03 1019.43 1018.76 1018.05 1017.29 1016.50 1015.71 1014.96 1014.26 1013.64 1013.11
1019.65 1019.84 1019.99 1020.12 1020.25 1020.40 1020.58 1020.79 1021.02 1021.25 1021.49 1021.72 1021.94 1022.14 1022.34 1022.53 1022.72 1022.90 1023.07 1023.23 1023.34 1023.40 1023.40 1023.32 1023.17 1022.93 1022.63 1022.27 1021.87 1021.42 1020.93 1020.41 1019.84 1019.22 1018.54 1017.82 1017.06 1016.28 1015.51 1014.76 1014.08 1013.47 1012.95
1020.05 1020.23 1020.36 1020.46 1020.57 1020.70 1020.87 1021.06 1021.28 1021.52 1021.76 1022.00 1022.23 1022.45 1022.65 1022.85 1023.04 1023.22 1023.38 1023.51 1023.59 1023.62 1023.59 1023.47 1023.28 1023.01 1022.67 1022.28 1021.84 1021.36 1020.85 1020.30 1019.72 1019.09 1018.42 1017.70 1016.96 1016.20 1015.44 1014.72 1014.06 1013.47 1012.96
1020.37 1020.55 1020.67 1020.76 1020.85 1020.97 1021.11 1021.29 1021.50 1021.73 1021.97 1022.21 1022.45 1022.68 1022.90 1023.11 1023.31 1023.49 1023.64 1023.76 1023.83 1023.83 1023.77 1023.62 1023.40 1023.10 1022.73 1022.32 1021.86 1021.36 1020.83 1020.27 1019.68 1019.05 1018.38 1017.68 1016.95 1016.21 1015.49 1014.79 1014.15 1013.58 1013.08
1020.62 1020.80 1020.92 1021.01 1021.09 1021.18 1021.30 1021.46 1021.65 1021.86 1022.10 1022.35 1022.59 1022.84 1023.08 1023.30 1023.51 1023.70 1023.85 1023.96 1024.02 1024.00 1023.92 1023.75 1023.51 1023.19 1022.81 1022.37 1021.90 1021.39 1020.86 1020.29 1019.70 1019.07 1018.42 1017.73 1017.02 1016.31 1015.60 1014.93 1014.30 1013.74 1013.25
1020.81 1021.00 1021.12 1021.20 1021.27 1021.34 1021.44 1021.57 1021.74 1021.94 1022.16 1022.40 1022.65 1022.91 1023.16 1023.40 1023.62 1023.82 1023.97 1024.08 1024.13 1024.10 1024.01 1023.83 1023.58 1023.25 1022.87 1022.43 1021.96 1021.45 1020.92 1020.36 1019.77 1019.15 1018.51 1017.84 1017.15 1016.45 1015.76 1015.10 1014.49 1013.93 1013.43
1020.96 1021.15 1021.28 1021.35 1021.40 1021.46 1021.53 1021.63 1021.77 1021.94 1022.15 1022.38 1022.63 1022.89 1023.15 1023.40 1023.63 1023.82 1023.98 1024.09 1024.13 1024.11 1024.01 1023.83 1023.58 1023.26 1022.89 1022.46 1022.00 1021.51 1020.99 1020.45 1019.88 1019.28 1018.65 1018.00 1017.33 1016.65 1015.98 1015.32 1014.71 1014.14 1013.64
Thickness
5806 5804 5801 5798 5793 5789 5784 5782 5776 5769 5762 5753 5744 5735 5727 5722 5716 5711 5707 5704 5699 5694 5688 5682 5677 5672 5667 5663 5659 5655 5650 5646 5644 5642 5639 5638 5635 5632 5629 5626 5623 5619 5615
5795 5794 5793 5791 5788 5784 5780 5775 5769 5762 5756 5750 5741 5732 5723 5714 5707 5701 5695 5692 5688 5683 5677 5671 5665 5660 5655 5650 5646 5642 5636 5631 5629 5625 5621 5618 5619 5617 5615 5611 5608 5603 5600
5798 5794 5790 5787 5784 5778 5772 5767 5760 5751 5742 5736 5730 5720 5711 5703 5694 5688 5682 5679 5676 5671 5665 5659 5653 5648 5643 5636 5631 5628 5623 5616 5612 5610 5606 5600 5597 5595 5599 5595 5591 5587 5583
5799 5795 5790 5784 5779 5772 5765 5757 5749 5740 5732 5724 5716 5710 5701 5691 5683 5676 5671 5667 5663 5658 5652 5647 5641 5635 5630 5624 5620 5615 5610 5605 5598 5594 5591 5586 5581 5577 5576 5577 5574 5570 5566
5794 5790 5786 5780 5773 5764 5755 5747 5738 5727 5719 5712 5704 5698 5689 5681 5673 5667 5662 5657 5652 5647 5641 5635 5629 5623 5617 5612 5607 5603 5598 5593 5587 5581 5576 5571 5566 5561 5557 5556 5556 5555 5551
5788 5782 5774 5768 5759 5752 5745 5736 5728 5717 5709 5703 5694 5689 5681 5673 5666 5659 5653 5647 5642 5635 5630 5624 5618 5611 5606 5600 5596 5591 5586 5581 5575 5569 5563 5557 5551 5545 5540 5538 5537 5537 5537
5776 5768 5760 5753 5745 5737 5729 5721 5714 5705 5698 5689 5682 5677 5671 5666 5659 5651 5645 5639 5631 5624 5618 5612 5606 5600 5595 5590 5585 5579 5574 5568 5562 5557 5551 5546 5540 5535 5529 5525 5524 5522 5521
5756 5749 5742 5735 5727 5719 5711 5705 5698 5690 5684 5678 5670 5664 5659 5654 5648 5642 5636 5628 5620 5613 5607 5601 5595 5589 5584 5579 5573 5567 5562 5556 5550 5545 5540 5534 5529 5524 5518 5513 5509 5508 5508
5735 5729 5721 5714 5706 5698 5691 5686 5682 5676 5670 5664 5658 5652 5646 5641 5635 5629 5622 5615 5608 5601 5594 5589 5583 5577 5572 5566 5560 5553 5548 5543 5537 5532 5526 5521 5517 5511 5505 5499 5492 5488 5493
5715 5709 5702 5695 5687 5681 5673 5669 5665 5660 5655 5650 5645 5639 5633 5627 5621 5614 5607 5600 5594 5588 5581 5575 5569 5563 5557 5551 5544 5537 5531 5525 5520 5515 5509 5504 5499 5495 5489 5483 5477 5470 5466
5697 5691 5684 5677 5672 5667 5661 5654 5648 5644 5640 5636 5631 5625 5619 5613 5607 5600 5594 5587 5580 5574 5567 5561 5554 5546 5539 5532 5525 5518 5512 5507 5502 5497 5492 5487 5482 5477 5472 5466 5460 5452 5445
5679 5674 5669 5664 5658 5653 5647 5641 5634 5630 5626 5622 5617 5611 5605 5599 5593 5586 5579 5572 5565 5558 5552 5545 5537 5527 5519 5513 5506 5500 5495 5490 5485 5480 5475 5471 5467 5462 5456 5450 5443 5436 5428
5661 5656 5652 5647 5643 5640 5634 5628 5621 5617 5612 5608 5602 5596 5589 5583 5577 5570 5563 5556 5549 5542 5536 5528 5519 5510 5502 5496 5490 5484 5479 5474 5469 5465 5460 5456 5452 5447 5442 5436 5429 5422 5417
5643 5638 5634 5629 5624 5622 5618 5612 5606 5602 5597 5592 5586 5579 5572 5566 5559 5552 5545 5538 5532 5525 5518 5510 5502 5494 5488 5481 5475 5470 5464 5459 5455 5451 5448 5443 5439 5434 5429 5424 5417 5411 5406
5627 5622 5617 5612 5607 5604 5600 5595 5590 5585 5580 5574 5568 5561 5555 5548 5542 5534 5527 5520 5514 5507 5501 5494 5487 5480 5473 5467 5461 5456 5452 5447 5443 5439 5435 5431 5428 5425 5419 5414 5409 5404 5401
5612 5606 5601 5596 5591 5587 5582 5577 5572 5567 5562 5556 5549 5543 5537 5530 5523 5516 5509 5502 5495 5490 5484 5477 5471 5465 5460 5454 5449 5443 5438 5434 5430 5426 5423 5420 5417 5414 5410 5406 5403 5400 5398
5600 5593 5586 5580 5576 5570 5565 5559 5554 5549 5543 5537 5531 5525 5519 5512 5506 5499 5492 5485 5479 5473 5468 5462 5457 5451 5446 5441 5436 5431 5426 5421 5417 5415 5412 5410 5408 5406 5403 5402 5400 5398 5397
5583 5576 5569 5563 5557 5552 5547 5542 5537 5531 5525 5520 5514 5509 5502 5495 5489 5482 5475 5469 5464 5458 5453 5449 5444 5438 5434 5429 5423 5418 5413 5409 5407 5405 5403 5402 5401 5401 5399 5399 5399 5399 5400
5565 5559 5553 5547 5542 5537 5532 5526 5520 5514 5509 5504 5499 5493 5487 5480 5473 5466 5460 5455 5450 5445 5440 5435 5430 5425 5420 5416 5411 5406 5401 5399 5398 5397 5397 5397 5397 5397 5396 5398 5400 5402 5404
5548 5543 5537 5533 5527 5521 5517 5511 5505 5500 5495 5490 5485 5479 5472 5466 5459 5452 5447 5441 5436 5431 5427 5422 5417 5412 5407 5403 5400 5396 5392 5391 5391 5392 5393 5394 5395 5395 5397 5399 5402 5404 5406
5534 5529 5524 5519 5514 5509 5503 5497 5492 5486 5482 5477 5471 5465 5458 5452 5445 5439 5433 5428 5423 5418 5413 5408 5404 5400 5396 5393 5391 5388 5386 5385 5387 5389 5391 5393 5394 5396 5398 5401 5403 5405 5407
5519 5515 5510 5506 5501 5496 5491 5485 5480 5475 5471 5465 5458 5451 5445 5440 5433 5426 5421 5416 5410 5404 5399 5394 5391 5389 5387 5385 5383 5383 5382 5382 5383 5386 5388 5391 5394 5397 5401 5403 5405 5407 5410
5506 5502 5498 5494 5489 5485 5480 5474 5470 5466 5460 5452 5444 5438 5432 5426 5421 5415 5409 5402 5397 5391 5387 5383 5381 5380 5380 5379 5378 5379 5380 5381 5382 5384 5388 5392 5396 5399 5403 5405 5407 5410 5411
5494 5490 5486 5482 5477 5474 5470 5465 5461 5456 5449 5441 5433 5426 5420 5414 5409 5403 5398 5392 5387 5382 5379 5375 5373 5373 5373 5373 5373 5374 5376 5378 5381 5384 5389 5393 5397 5401 5404 5407 5409 5411 5412
5483 5479 5475 5471 5468 5464 5460 5457 5452 5447 5439 5431 5423 5416 5410 5404 5399 5394 5389 5385 5381 5377 5373 5370 5368 5367 5368 5369 5369 5370 5373 5376 5379 5384 5389 5394 5398 5401 5405 5408 5410 5412 5414
5475 5471 5467 5463 5459 5455 5451 5447 5443 5438 5430 5421 5414 5407 5401 5396 5391 5387 5383 5380 5377 5374 5371 5368 5365 5364 5365 5366 5368 5370 5374 5377 5381 5385 5389 5393 5397 5401 5404 5408 5411 5413 5415